This is the latest recevied weather packets stored in our database for station/object W9LRT-WX. If no packets are shown the sender has not sent any weather packets the latest 10 day(s).
| Time | Temp. | Humidity | Pressure | Rain* | Wind** | Luminosity | Snow |
|---|---|---|---|---|---|---|---|
| 1777678430 | 8.33° C | 54% | 1015.5 hPa | 0 mm | - | 134 W/m² | - |
| 1777677529 | 8.89° C | 55% | 1015.5 hPa | 0 mm | - | 202 W/m² | - |
| 1777676628 | 8.89° C | 55% | 1015.4 hPa | 0 mm | - | 255 W/m² | - |
| 1777675729 | 8.89° C | 55% | 1015.5 hPa | 0 mm | - | 343 W/m² | - |
| 1777674831 | 9.44° C | 54% | 1015.4 hPa | 0 mm | - | 167 W/m² | - |
| 1777673929 | 10° C | 51% | 1015.4 hPa | 0 mm | - | 408 W/m² | - |
| 1777673031 | 10° C | 52% | 1015.3 hPa | 0 mm | - | 450 W/m² | - |
| 1777672129 | 9.44° C | 49% | 1015.4 hPa | 0 mm | - | 570 W/m² | - |
| 1777671228 | 9.44° C | 51% | 1015.3 hPa | 0 mm | - | 608 W/m² | - |
| 1777670329 | 9.44° C | 53% | 1015.3 hPa | 0 mm | - | 290 W/m² | - |
| 1777669428 | 10° C | 52% | 1015.2 hPa | 0 mm | - | 643 W/m² | - |
| 1777668529 | 10.56° C | 52% | 1015.1 hPa | 0 mm | - | 703 W/m² | - |
| 1777667629 | 11.11° C | 53% | 1015.1 hPa | 0 mm | - | 740 W/m² | - |
| 1777666729 | 10° C | 50% | 1015.1 hPa | 0 mm | - | 803 W/m² | - |
| 1777665825 | 9.44° C | 54% | 1015.1 hPa | 0 mm | - | 244 W/m² | - |
| 1777664925 | 10.56° C | 55% | 1015 hPa | 0 mm | - | 810 W/m² | - |
| 1777664027 | 10° C | 54% | 1014.9 hPa | 0 mm | - | 861 W/m² | - |
| 1777663123 | 11.11° C | 61% | 1014.8 hPa | 0 mm | - | 789 W/m² | - |
| 1777662222 | 10.56° C | 61% | 1014.7 hPa | 0 mm | - | 853 W/m² | - |
| 1777661324 | 10° C | 63% | 1014.7 hPa | 0 mm | - | 295 W/m² | - |
| 1777660416 | 10° C | 61% | 1014.5 hPa | 0 mm | - | 1155 W/m² | - |
| 1777659517 | 10.56° C | 61% | 1014.5 hPa | 0 mm | - | 1155 W/m² | - |
| 1777658616 | 9.44° C | 63% | 1014.3 hPa | 0 mm | - | 1039 W/m² | - |
| 1777657716 | 10° C | 60% | 1014.3 hPa | 0 mm | - | 373 W/m² | - |
| 1777656816 | 8.89° C | 59% | 1014.2 hPa | 0 mm | - | 1048 W/m² | - |
* Rain latest hour (hover to see other rain measurements)
** Current wind speed in m/s (hover to see current wind gust speed)